[[{"header":{"parameterUnit":"m.s-1","parameterCategory":1,"la1":30.2991,"la2":30.254,"lo1":-89.0895,"lo2":-89.0444,"dy":0.0017,"dx":0.0017,"nx":28,"ny":28,"refTime":"2024-10-04T21:00:00:Z","depth":0,"parameterNumber":2,"parameterNumberName":"U-component_of_WINDS"},"data":[0,0,0,0,0,0,0,0,0,0,0,0,0,0,0,0,0,0,0,0,0,0,0,0,0,0,0,0,0,0,0,0,0,0,0,0,0,0,0,0,0,0,0,0,0,0,0,0,0,0,0,0,0,0,0,0,0,0,-2.4554,-2.4555,0,-2.4608,-2.4609,-2.461,-2.456,-2.4558,-2.4556,-2.4554,-2.4609,-2.4612,-2.4615,0,0,0,0,0,0,0,0,0,0,0,0,0,-2.4409,-2.4412,-2.4554,-2.4555,-2.4556,-2.4608,-2.4609,-2.461,-2.456,-2.4558,-2.4555,-2.4553,-2.4608,-2.4612,-2.4616,0,0,0,0,0,0,0,0,0,0,0,0,0,-2.4468,-2.4413,-2.4554,-2.4537,-2.4536,-2.4608,-2.4609,-2.461,-2.456,-2.4557,-2.4554,-2.4552,-2.4607,-2.4611,-2.4616,-2.4708,0,0,-2.4632,-2.4634,0,0,0,0,0,0,0,0,-2.4465,-2.4474,-2.4539,-2.4538,-2.4537,-2.4574,-2.4578,-2.4643,-2.4561,-2.4551,-2.4554,-2.455,-2.46,-2.4605,-2.4622,-2.471,-2.4713,-2.4632,-2.4635,-2.4637,-2.4639,0,0,0,0,0,0,0,-2.4461,-2.4471,-2.4576,-2.454,-2.4539,-2.4527,-2.4532,-2.459,-2.4592,-2.4552,-2.4548,-2.4555,-2.4599,-2.4617,-2.4623,-2.4714,-2.4632,-2.4636,-2.464,-2.4642,-2.4883,-2.4886,0,0,0,0,0,0,-2.4459,-2.4468,-2.4574,-2.4577,-2.4493,-2.4532,-2.4538,-2.4565,-2.4591,-2.4592,-2.4558,-2.4553,-2.461,-2.4617,-2.4625,-2.4736,-2.4637,-2.4642,-2.4645,-2.488,-2.4884,-2.4888,0,0,0,0,0,0,-2.4456,-2.4468,-2.4572,-2.4522,-2.4534,-2.4538,-2.4569,-2.4568,-2.4587,-2.4596,-2.4596,-2.4577,-2.4608,-2.4618,-2.4688,-2.4737,-2.4644,-2.4649,-2.4876,-2.4881,-2.4886,-2.4959,0,0,0,0,0,0,-2.4452,-2.4468,-2.4502,-2.4523,-2.4537,-2.4635,-2.4572,-2.4571,-2.4595,-2.4589,-2.4613,-2.4614,-2.4606,-2.4681,-2.4693,-2.4743,-2.4653,-2.4872,-2.4878,-2.4884,-2.4952,-2.4966,-2.4977,0,0,0,0,0,-2.4447,-2.452,-2.4504,-2.4517,-2.458,-2.4637,-2.4645,-2.4635,-2.4599,-2.4635,-2.4641,-2.4613,-2.4729,-2.4689,-2.4702,-2.4754,-2.4868,-2.4876,-2.4884,-2.4946,-2.4963,-2.4977,0,0,0,0,0,0,-2.4504,-2.4522,-2.4505,-2.4587,-2.4611,-2.4629,-2.4673,-2.4653,-2.4687,-2.468,-2.4665,-2.4671,-2.4747,-2.4757,-2.4711,-2.4845,-2.4793,-2.4804,-2.4836,-2.4852,-2.4865,-2.4862,-2.4657,0,0,0,0,0,-2.4527,-2.4572,-2.4585,-2.4656,-2.4669,-2.4669,-2.4693,-2.4684,-2.4708,-2.4718,-2.4729,-2.4754,-2.4796,-2.4824,-2.4863,-2.4952,-2.4958,-2.4995,-2.5007,-2.5018,-2.5028,-2.5079,-2.5096,-2.4913,-2.4913,-2.4913,0,0,-2.4573,-2.4588,-2.4618,-2.4668,-2.4685,-2.4733,-2.4678,-2.473,-2.4766,-2.4725,-2.4794,-2.4803,-2.483,-2.4911,-2.4947,-2.4922,-2.508,-2.5027,-2.5036,-2.504,-2.5089,-2.5106,-2.5122,-2.4918,-2.4917,-2.4916,0,0,-2.4683,-2.4698,-2.4761,-2.478,-2.4807,-2.4807,-2.4822,-2.4843,-2.4848,-2.4916,-2.4888,-2.493,-2.5002,-2.5024,-2.5044,-2.5164,-2.5141,-2.5177,-2.5244,-2.5294,-2.5309,-2.5322,-2.5368,-2.5384,-2.5186,-2.5187,-2.5187,0,-2.4738,-2.4809,-2.4795,-2.4851,-2.4875,-2.4841,-2.4905,-2.4924,-2.4962,-2.498,-2.495,-2.5043,-2.5058,-2.5145,-2.5175,-2.5191,-2.521,-2.5175,-2.5308,-2.532,-2.5332,-2.5376,-2.5393,-2.5191,-2.5191,-2.519,-2.519,0,-2.4876,-2.4925,-2.4972,-2.5013,-2.5041,-2.51,-2.5097,-2.5128,-2.5115,-2.5119,-2.519,-2.5207,-2.5251,-2.527,-2.5258,-2.5357,-2.5341,-2.531,-2.5258,-2.5354,-2.5395,-2.5412,-2.5197,-2.5196,-2.5195,-2.5193,0,0,-2.5025,-2.5057,-2.5075,-2.5094,-2.5122,-2.5161,-2.5219,-2.5262,-2.529,-2.5318,-2.5368,-2.5431,-2.5403,-2.5426,-2.5416,-2.5459,-2.5557,-2.5423,-2.5424,-2.5451,-2.5671,-2.5697,-2.5716,-2.5541,-2.5544,-2.5547,-2.567,0,-2.5138,-2.524,-2.5231,-2.5328,-2.5375,-2.5344,-2.5395,-2.5419,-2.5423,-2.5464,-2.5469,-2.5515,-2.5473,-2.5488,-2.5529,-2.5537,-2.5602,-2.5527,-2.559,-2.5593,-2.5588,-2.5737,-2.5764,-2.5879,-2.5686,-2.5688,-2.569,0,-2.5284,-2.5319,-2.5422,-2.5445,-2.5465,-2.5511,-2.5551,-2.559,-2.5616,-2.5617,-2.5644,-2.5627,-2.5687,-2.5632,-2.5716,-2.5665,-2.569,-2.5698,-2.5702,-2.571,-2.5649,-2.5752,-2.5915,-2.5934,-2.5714,-2.5713,-2.5711,0,-2.5387,-2.5459,-2.553,-2.5547,-2.5575,-2.5609,-2.5622,-2.5646,-2.5673,-2.5708,-2.5726,-2.5767,-2.579,-2.5823,-2.5818,-2.5778,-2.5905,-2.5848,-2.5909,-2.5909,-2.5939,-2.5938,-2.6112,-2.595,-2.595,-2.5949,-2.5949,0,-2.5517,-2.5582,-2.5577,-2.5622,-2.5694,-2.5682,-2.5754,-2.5763,-2.5784,-2.5831,-2.5805,-2.5849,-2.5839,-2.5883,-2.5879,-2.5951,-2.5961,-2.5964,-2.5963,-2.5969,-2.5969,-2.5987,-2.598,-2.5954,-2.5953,-2.5952,-2.5951,0,-2.5645,-2.5644,-2.5721,-2.5741,-2.5748,-2.5801,-2.5819,-2.5862,-2.5864,-2.5923,-2.5936,-2.5941,-2.5992,-2.599,-2.6047,-2.6044,-2.6134,-2.6122,-2.6126,-2.6124,-2.6186,-2.6182,-2.6381,-2.6408,-2.6225,-2.6227,-2.6228,0,-2.5729,-2.5779,-2.5805,-2.5835,-2.5851,-2.5898,-2.5926,-2.5917,-2.5947,-2.5982,-2.6021,-2.607,-2.6108,-2.6191,-2.62,-2.6244,-2.6235,-2.6302,-2.6242,-2.6247,-2.624,-2.6239,-2.6245,-2.6315,-2.6317,-2.6318,-2.632,0,-2.588,-2.5878,-2.592,-2.5962,-2.5997,-2.603,-2.606,-2.6085,-2.6079,-2.6115,-2.6167,-2.6197,-2.6256,-2.6306,-2.6348,-2.6362,-2.6342,-2.6338,-2.6355,-2.6363,-2.6364,-2.6368,-2.6162,-2.6334,-2.6333,-2.6332,-2.6331,-2.633,-2.5991,-2.6035,-2.6062,-2.611,-2.6131,-2.616,-2.6202,-2.6211,-2.6254,-2.6302,-2.6293,-2.6352,-2.6379,-2.6435,-2.6453,-2.65,-2.6476,-2.65,-2.6507,-2.6514,-2.6522,-2.6354,-2.6507,-2.6507,-2.6506,-2.6506,-2.6506,0,-2.6144,-2.616,-2.6204,-2.6248,-2.6286,-2.6262,-2.6294,-2.6328,-2.6381,-2.6407,-2.6446,-2.6508,-2.6556,-2.6569,-2.6616,-2.6651,-2.6643,-2.6664,-2.6663,-2.6667,-2.6539,-2.6521,-2.667,-2.667,-2.667,-2.667,-2.667,-2.667,-2.6229,-2.6302,-2.6303,-2.6388,-2.6403,-2.6461,-2.6482,-2.651,-2.6531,-2.6601,-2.6641,-2.6649,-2.6671,-2.672,-2.6764,-2.6766,-2.6786,-2.6813,-2.6812,-2.6692,-2.6676,-2.666,-2.6644,-2.6816,-2.6816,-2.6937,-2.6938,-2.6939]},{"header":{"parameterUnit":"m.s-1","parameterCategory":1,"la1":30.2991,"la2":30.254,"lo1":-89.0895,"lo2":-89.0444,"dy":0.0017,"dx":0.0017,"nx":28,"ny":28,"refTime":"2024-10-04T21:00:00:Z","depth":0,"parameterNumber":3,"parameterNumberName":"V-component_of_WINDS"},"data":[0,0,0,0,0,0,0,0,0,0,0,0,0,0,0,0,0,0,0,0,0,0,0,0,0,0,0,0,0,0,0,0,0,0,0,0,0,0,0,0,0,0,0,0,0,0,0,0,0,0,0,0,0,0,0,0,0,0,-1.5143,-1.5142,0,-1.5091,-1.5091,-1.509,-1.5081,-1.5082,-1.5082,-1.5083,-1.5023,-1.5021,-1.5019,0,0,0,0,0,0,0,0,0,0,0,0,0,-1.5228,-1.5227,-1.5143,-1.5142,-1.5142,-1.5091,-1.5091,-1.509,-1.5081,-1.5082,-1.5083,-1.5083,-1.5023,-1.5021,-1.5019,0,0,0,0,0,0,0,0,0,0,0,0,0,-1.5185,-1.5226,-1.5143,-1.5131,-1.513,-1.5091,-1.5091,-1.509,-1.5081,-1.5082,-1.5083,-1.5083,-1.5024,-1.5021,-1.5018,-1.4985,0,0,-1.5009,-1.5008,0,0,0,0,0,0,0,0,-1.5188,-1.5182,-1.5134,-1.5132,-1.513,-1.5094,-1.5099,-1.5054,-1.5081,-1.5099,-1.5083,-1.5084,-1.5045,-1.5041,-1.5029,-1.4983,-1.498,-1.5009,-1.5007,-1.5005,-1.5005,0,0,0,0,0,0,0,-1.5191,-1.5184,-1.5122,-1.5133,-1.5131,-1.5127,-1.5122,-1.509,-1.5069,-1.5098,-1.5097,-1.5092,-1.5044,-1.5032,-1.5028,-1.4979,-1.5009,-1.5006,-1.5004,-1.5003,-1.4905,-1.4904,0,0,0,0,0,0,-1.5197,-1.5187,-1.5124,-1.5121,-1.5162,-1.5125,-1.5119,-1.5105,-1.5069,-1.5065,-1.5091,-1.5091,-1.5037,-1.5031,-1.5025,-1.4986,-1.5006,-1.5003,-1.5001,-1.4905,-1.4904,-1.4904,0,0,0,0,0,0,-1.5198,-1.5191,-1.5126,-1.5154,-1.5145,-1.5123,-1.5107,-1.5103,-1.5091,-1.5064,-1.506,-1.5083,-1.5037,-1.503,-1.4996,-1.4984,-1.5001,-1.4998,-1.4906,-1.4905,-1.4904,-1.4907,0,0,0,0,0,0,-1.5201,-1.5192,-1.518,-1.5153,-1.5144,-1.5099,-1.5106,-1.5102,-1.5087,-1.5087,-1.5055,-1.5051,-1.5037,-1.5001,-1.4993,-1.498,-1.4996,-1.4907,-1.4906,-1.4904,-1.4907,-1.4906,-1.4904,0,0,0,0,0,-1.5204,-1.5181,-1.518,-1.5172,-1.5129,-1.5099,-1.5093,-1.508,-1.5086,-1.5073,-1.5056,-1.5052,-1.4987,-1.4998,-1.4989,-1.4975,-1.4908,-1.4906,-1.4904,-1.4908,-1.4906,-1.4904,0,0,0,0,0,0,-1.5204,-1.5177,-1.5176,-1.5144,-1.5124,-1.5097,-1.5081,-1.5078,-1.5054,-1.5055,-1.5037,-1.503,-1.4998,-1.4983,-1.4996,-1.4942,-1.4947,-1.4944,-1.4953,-1.4951,-1.4949,-1.4954,-1.4994,0,0,0,0,0,-1.5201,-1.5181,-1.5157,-1.5131,-1.5122,-1.5103,-1.5089,-1.5082,-1.506,-1.505,-1.5031,-1.5008,-1.4982,-1.4965,-1.494,-1.4905,-1.4898,-1.4891,-1.4889,-1.4888,-1.4885,-1.4867,-1.4863,-1.4898,-1.4898,-1.4898,0,0,-1.5193,-1.5176,-1.5164,-1.5131,-1.5115,-1.5093,-1.5096,-1.5072,-1.5055,-1.5046,-1.5015,-1.4999,-1.4972,-1.4938,-1.4922,-1.4924,-1.4874,-1.4886,-1.4885,-1.4883,-1.4865,-1.4861,-1.4859,-1.4897,-1.4897,-1.4897,0,0,-1.5168,-1.5153,-1.5131,-1.5115,-1.5092,-1.508,-1.5075,-1.5049,-1.504,-1.5009,-1.5002,-1.498,-1.4936,-1.4918,-1.4903,-1.4873,-1.4868,-1.4865,-1.4856,-1.4838,-1.4835,-1.4833,-1.4823,-1.482,-1.4862,-1.4862,-1.4862,0,-1.5161,-1.513,-1.5119,-1.5097,-1.5083,-1.5076,-1.5053,-1.5037,-1.5005,-1.4995,-1.4999,-1.4945,-1.4926,-1.4889,-1.4882,-1.4869,-1.4862,-1.4868,-1.4837,-1.4835,-1.4832,-1.4823,-1.4819,-1.4862,-1.4862,-1.4862,-1.4862,0,-1.5123,-1.5101,-1.5085,-1.5059,-1.5043,-1.5019,-1.5004,-1.4989,-1.4983,-1.497,-1.4938,-1.4916,-1.4887,-1.4877,-1.4869,-1.4839,-1.4841,-1.4841,-1.4846,-1.4829,-1.482,-1.4816,-1.4862,-1.4862,-1.4862,-1.4862,0,0,-1.5096,-1.5066,-1.506,-1.5049,-1.5023,-1.5005,-1.4981,-1.4956,-1.4944,-1.4922,-1.4902,-1.4866,-1.4866,-1.4849,-1.4839,-1.4824,-1.4803,-1.4825,-1.4824,-1.4823,-1.4769,-1.4771,-1.4767,-1.48,-1.4799,-1.4798,-1.4772,0,-1.5069,-1.503,-1.5021,-1.4987,-1.4967,-1.4961,-1.494,-1.4921,-1.4909,-1.4889,-1.4874,-1.485,-1.4852,-1.4842,-1.4826,-1.4809,-1.4792,-1.4811,-1.478,-1.4779,-1.4788,-1.4762,-1.4762,-1.4739,-1.4768,-1.4768,-1.4767,0,-1.5033,-1.5014,-1.4979,-1.4958,-1.4949,-1.4931,-1.4908,-1.4889,-1.4867,-1.4859,-1.4842,-1.4834,-1.4808,-1.4815,-1.4779,-1.4792,-1.4778,-1.4768,-1.4767,-1.4764,-1.4773,-1.4759,-1.4731,-1.4728,-1.4761,-1.4762,-1.4762,0,-1.5019,-1.4984,-1.496,-1.495,-1.4924,-1.4912,-1.49,-1.4879,-1.4865,-1.4844,-1.4834,-1.4809,-1.4795,-1.4775,-1.4761,-1.4767,-1.4726,-1.4732,-1.4719,-1.4719,-1.471,-1.4711,-1.4681,-1.47,-1.4701,-1.4701,-1.4701,0,-1.4991,-1.4969,-1.4953,-1.4938,-1.4914,-1.4903,-1.4879,-1.4866,-1.4848,-1.483,-1.4821,-1.4803,-1.4785,-1.4764,-1.4752,-1.4724,-1.4718,-1.471,-1.4707,-1.4711,-1.4713,-1.4703,-1.4704,-1.47,-1.47,-1.47,-1.47,0,-1.4971,-1.4959,-1.4932,-1.4911,-1.4905,-1.4889,-1.487,-1.4854,-1.4842,-1.4818,-1.4812,-1.4792,-1.4768,-1.4751,-1.4718,-1.471,-1.4681,-1.4678,-1.469,-1.4688,-1.4677,-1.4679,-1.4639,-1.4634,-1.4657,-1.4656,-1.4656,0,-1.4955,-1.4939,-1.4917,-1.4905,-1.4894,-1.4875,-1.4861,-1.4849,-1.4835,-1.481,-1.4797,-1.4773,-1.4753,-1.4713,-1.4695,-1.467,-1.4667,-1.4655,-1.4663,-1.4668,-1.4668,-1.467,-1.4668,-1.4654,-1.4654,-1.4653,-1.4653,0,-1.4927,-1.4922,-1.4904,-1.4885,-1.487,-1.4853,-1.4836,-1.4826,-1.481,-1.4795,-1.4771,-1.4756,-1.4724,-1.47,-1.4674,-1.466,-1.4654,-1.4651,-1.4647,-1.4651,-1.4659,-1.4656,-1.4687,-1.4652,-1.4652,-1.4652,-1.4652,-1.4652,-1.4909,-1.4895,-1.4879,-1.4859,-1.4846,-1.4831,-1.4816,-1.4803,-1.4784,-1.4759,-1.4752,-1.4728,-1.4707,-1.4672,-1.4657,-1.4637,-1.4638,-1.4632,-1.463,-1.4629,-1.463,-1.4663,-1.4632,-1.4632,-1.4632,-1.4632,-1.4632,0,-1.4882,-1.4871,-1.4854,-1.4832,-1.4817,-1.4815,-1.4796,-1.4783,-1.4763,-1.4745,-1.4726,-1.4699,-1.4676,-1.4656,-1.4632,-1.4619,-1.4616,-1.4613,-1.4615,-1.4612,-1.463,-1.4636,-1.4617,-1.4617,-1.4617,-1.4617,-1.4617,-1.4617,-1.4866,-1.4844,-1.4838,-1.4808,-1.4797,-1.4775,-1.4765,-1.475,-1.4736,-1.4708,-1.469,-1.4678,-1.4659,-1.4634,-1.4612,-1.4607,-1.4599,-1.4597,-1.4591,-1.4608,-1.461,-1.4612,-1.4618,-1.4595,-1.4595,-1.4575,-1.4575,-1.4574]}]]